Midland, TX

4:43 PM CST on December 02, 2016 (GMT -0600)
Midland International

Weather History for KMAF - April, 2013

Change the Weather History Date:

Monday, April 22, 2013

  Actual Average Record
Temperature  
Mean Temperature 74 °F 66 °F  
Max Temperature 93 °F 81 °F 100 °F (1989)
Min Temperature 55 °F 51 °F 36 °F (1931)
Degree Days  
Heating Degree Days 0 2  
Month to date heating degree days 101 97  
Since 1 July heating degree days 2311 2641  
Cooling Degree Days 9 4  
Month to date cooling degree days 80 53  
Year to date cooling degree days 115 71  
Growing Degree Days 24 (Base 50)    
Moisture  
Dew Point 40 °F    
Average Humidity 40    
Maximum Humidity 72    
Minimum Humidity 7    
Precipitation  
Precipitation 0.00 in 0.02 in 0.53 in (1932)
Month to date precipitation T 0.46  
Year to date precipitation 1.53 2.33  
Snow  
Snow 0.00 in - - ()
Month to date snowfall 0.0  
Since 1 July snowfall 1.0  
Snow Depth 0.00 in    
Sea Level Pressure  
Sea Level Pressure 29.78 in    
Wind  
Wind Speed 14 mph (SSW)    
Max Wind Speed 25 mph    
Max Gust Speed 31 mph    
Visibility 10 miles    
Events      
T = Trace of Precipitation, MM = Missing Value Source: NWS Daily Summary

Daily Weather History Graph

Daily Weather History Graph

Search for Another Location

Airport or City:

Trip Planner

Search our weather history database for the weather conditions in past years. The results will help you decide how hot, cold, wet, or windy it might be!

Date:

Astronomy

Apr. 22, 2013 Rise Set
Actual Time 7:11 AM CDT 8:23 PM CDT
Civil Twilight 6:46 AM CDT 8:48 PM CDT
Nautical Twilight 6:16 AM CDT 9:18 PM CDT
Astronomical Twilight 5:44 AM CDT 9:50 PM CDT
Moon 5:24 PM CDT (4/22) 4:55 AM CDT (4/22)
Length of Visible Light 14h 02m
Length of Day
13h 11m
Waxing Gibbous, 88% of the Moon is Illuminated
Apr 22
Waxing Gibbous
Apr 25
Full
May 2
Last Quarter
May 9
New
May 17
First Quarter

Hourly Weather History & Observations

Time (CDT) Temp. Dew Point Humidity Pressure Visibility Wind Dir Wind Speed Gust Speed Precip Events Conditions
12:53 AM 66.9 °F 36.0 °F 32% 29.86 in 10.0 mi South 13.8 mph - N/A   Clear
1:53 AM 64.0 °F 37.0 °F 37% 29.86 in 10.0 mi South 8.1 mph - N/A   Clear
2:53 AM 63.0 °F 37.9 °F 40% 29.84 in 10.0 mi South 8.1 mph - N/A   Clear
3:53 AM 63.0 °F 39.9 °F 43% 29.82 in 10.0 mi South 9.2 mph - N/A   Clear
4:53 AM 57.0 °F 39.0 °F 51% 29.82 in 10.0 mi South 8.1 mph - N/A   Clear
5:53 AM 55.0 °F 41.0 °F 59% 29.83 in 10.0 mi SSE 8.1 mph - N/A   Clear
6:53 AM 60.1 °F 46.0 °F 60% 29.83 in 10.0 mi South 12.7 mph - N/A   Clear
7:53 AM 61.0 °F 48.9 °F 64% 29.85 in 10.0 mi South 17.3 mph 25.3 mph N/A   Clear
8:53 AM 62.1 °F 53.1 °F 72% 29.88 in 10.0 mi South 19.6 mph 25.3 mph N/A   Clear
9:53 AM 66.9 °F 52.0 °F 59% 29.88 in 10.0 mi South 18.4 mph 24.2 mph N/A   Clear
10:53 AM 72.0 °F 51.1 °F 48% 29.88 in 10.0 mi South 18.4 mph 25.3 mph N/A   Clear
11:53 AM 79.0 °F 48.0 °F 34% 29.85 in 10.0 mi SSW 19.6 mph 24.2 mph N/A   Clear
12:53 PM 82.0 °F 42.1 °F 24% 29.83 in 10.0 mi SSW 20.7 mph 25.3 mph N/A   Clear
1:53 PM 84.9 °F 42.1 °F 22% 29.79 in 10.0 mi SW 11.5 mph 21.9 mph N/A   Clear
2:53 PM 88.0 °F 35.1 °F 15% 29.75 in 10.0 mi SW 13.8 mph 21.9 mph N/A   Clear
3:53 PM 90.0 °F 30.9 °F 12% 29.71 in 10.0 mi SW 19.6 mph 31.1 mph N/A   Clear
4:53 PM 91.9 °F 19.0 °F 7% 29.69 in 10.0 mi WSW 17.3 mph 24.2 mph N/A   Clear
5:53 PM 91.9 °F 18.0 °F 7% 29.66 in 10.0 mi WSW 11.5 mph 26.5 mph N/A   Clear
6:53 PM 90.0 °F 30.9 °F 12% 29.64 in 10.0 mi South 19.6 mph - N/A   Clear
7:53 PM 87.1 °F 37.0 °F 17% 29.65 in 10.0 mi South 18.4 mph 26.5 mph N/A   Clear
8:53 PM 82.0 °F 41.0 °F 23% 29.67 in 10.0 mi South 16.1 mph 25.3 mph N/A   Clear
9:53 PM 78.1 °F 44.1 °F 30% 29.68 in 10.0 mi South 15.0 mph 23.0 mph N/A   Clear
10:53 PM 75.9 °F 46.0 °F 35% 29.69 in 10.0 mi South 12.7 mph - N/A   Clear
11:53 PM 73.9 °F 48.0 °F 40% 29.68 in 10.0 mi South 12.7 mph - N/A   Clear